Starlink 33625

operational
NORAD ID: 63327 Int'l Des: 2025-057 Owner: SPXS Country: US Constellation: starlink
LEOCIRCULAR

About Starlink 33625

Description loading...

Live Position

Loading 3D Globe...

Upcoming Passes

Altitude History

Altitude vs Time

uPlot chart will show altitude changes over time

Two-Line Element Set

1 63327U 25057W 25259.09662565 .00026175 00000-0 95668-3 0 9990
2 63327 42.9987 289.2462 0002374 280.2647 79.7937 15.27601370 29162
Epoch: Sep 16, 2025 • Age: 17 hours

Current Status

Altitude 489.7 km
Velocity 7.62 km/s
Sub-Earth Point -30.77°S, 40.72°W
Launch Date Mar 18, 2025
Age 0.4 years
Type internet

Technical Details

Classification Payload
Mass 575.00 kg
Dry Mass 530.00 kg
Total Mass 575.00 kg
Length 0.30 m
Diameter 4.10 m
Span 29.00 m
Shape Box + pan
Manufacturer SPXS
Bus Type Starlink V2MO
Phase Status In Orbit
Owner/State SPXS/US

Large Constellations

Loading constellations...